Weather History for Dallas Love, TX

Change the Weather History Date:

Wednesday, November 6, 2013

  Actual Average Record
Temperature  
Mean Temperature 60 °F -  
Max Temperature 73 °F 66 °F 80 °F (2005)
Min Temperature 45 °F 49 °F 39 °F (1998)
Degree Days  
Heating Degree Days 6    
Growing Degree Days 10 (Base 50)    
Moisture  
Dew Point 48 °F    
Average Humidity 73    
Maximum Humidity 88    
Minimum Humidity 49    
Precipitation  
Precipitation 0.19 in - - ()
Sea Level Pressure  
Sea Level Pressure 30.17 in    
Wind  
Wind Speed 12 mph (NNW)    
Max Wind Speed 24 mph    
Max Gust Speed 29 mph    
Visibility 10 miles    
Events Rain    
Averages and records for this station are not official NWS values.
T = Trace of Precipitation, MM = Missing Value Source: NWS Daily Summary

Daily Weather History Graph

Daily Weather History Graph

Search for Another Location

Airport:

Trip Planner

Search our weather history database for the weather conditions in past years. The results will help you decide how hot, cold, wet, or windy it might be!

Date:

Astronomy

Nov. 06, 2013 Rise Set
Actual Time 6:49 AM CST 5:31 PM CST
Civil Twilight 6:24 AM CST 5:57 PM CST
Nautical Twilight 5:54 AM CST 6:26 PM CST
Astronomical Twilight 5:25 AM CST 6:55 PM CST
Moon 10:01 AM CST (11/6) 8:41 PM CST (11/6)
Length of Visible Light 11h 33m
Length of Day
10h 41m
Waxing Crescent, 14% of the Moon is Illuminated
Nov 6
Waxing Crescent
Nov 9
First Quarter
Nov 17
Full
Nov 25
Last Quarter
Dec 2
New

Hourly Weather History & Observations

Time (CST) Temp. Windchill Dew Point Humidity Pressure Visibility Wind Dir Wind Speed Gust Speed Precip Events Conditions
12:53 AM 72.0 °F - 66.9 °F 84% 29.96 in 8.0 mi SSW 6.9 mph - N/A   Overcast
1:53 AM 73.0 °F - 66.9 °F 81% 29.95 in 10.0 mi SSW 8.1 mph - N/A   Overcast
2:53 AM 73.0 °F - 66.9 °F 81% 29.96 in 10.0 mi SW 9.2 mph - N/A   Overcast
3:53 AM 73.0 °F - 66.9 °F 81% 29.96 in 10.0 mi SSW 6.9 mph - N/A   Overcast
4:28 AM 64.4 °F - 59.0 °F 83% 30.01 in 6.0 mi North 24.2 mph 27.6 mph 0.00 in Rain Light Rain
4:36 AM 60.8 °F - 57.2 °F 88% 30.02 in 1.5 mi NNW 17.3 mph 26.5 mph 0.11 in Rain Heavy Rain
4:45 AM 60.8 °F - 55.4 °F 82% 30.03 in 9.0 mi NNW 19.6 mph 27.6 mph 0.13 in Rain Light Rain
4:53 AM 57.9 °F - 54.0 °F 87% 30.02 in 10.0 mi NNW 23.0 mph 28.8 mph 0.13 in   Overcast
5:02 AM 57.2 °F - 53.6 °F 88% 30.04 in 10.0 mi NNW 13.8 mph 27.6 mph N/A   Overcast
5:53 AM 55.0 °F - 51.1 °F 86% 30.06 in 10.0 mi NNW 12.7 mph - 0.06 in Rain Light Rain
6:53 AM 53.1 °F - 48.9 °F 86% 30.09 in 10.0 mi NNW 17.3 mph 21.9 mph 0.00 in   Overcast
7:35 AM 51.8 °F - 46.4 °F 82% 30.14 in 10.0 mi NNW 18.4 mph 24.2 mph N/A   Overcast
7:53 AM 52.0 °F - 46.9 °F 83% 30.14 in 10.0 mi NNW 16.1 mph 27.6 mph N/A   Overcast
8:53 AM 51.1 °F - 45.0 °F 80% 30.18 in 10.0 mi NNW 18.4 mph 26.5 mph N/A   Overcast
9:40 AM 51.8 °F - 44.6 °F 76% 30.20 in 10.0 mi NNW 13.8 mph 28.8 mph N/A   Overcast
9:53 AM 52.0 °F - 44.1 °F 74% 30.20 in 10.0 mi NNW 16.1 mph 24.2 mph N/A   Overcast
10:53 AM 53.1 °F - 43.0 °F 69% 30.23 in 10.0 mi NNW 17.3 mph 20.7 mph N/A   Overcast
11:53 AM 52.0 °F - 42.1 °F 69% 30.25 in 10.0 mi NNW 13.8 mph 21.9 mph N/A   Overcast
12:49 PM 53.6 °F - 42.8 °F 67% 30.24 in 10.0 mi NNW 12.7 mph - N/A   Mostly Cloudy
12:53 PM 54.0 °F - 42.1 °F 64% 30.23 in 10.0 mi NW 16.1 mph - N/A   Mostly Cloudy
1:53 PM 54.0 °F - 41.0 °F 62% 30.23 in 10.0 mi North 16.1 mph - N/A   Mostly Cloudy
2:53 PM 55.9 °F - 39.9 °F 55% 30.25 in 10.0 mi North 13.8 mph - N/A   Scattered Clouds
3:53 PM 59.0 °F - 41.0 °F 51% 30.24 in 10.0 mi NNW 12.7 mph - N/A   Partly Cloudy
4:53 PM 59.0 °F - 39.9 °F 49% 30.25 in 10.0 mi NNW 10.4 mph - N/A   Clear
5:53 PM 55.9 °F - 39.0 °F 53% 30.27 in 10.0 mi North 8.1 mph - N/A   Clear
6:53 PM 54.0 °F - 39.9 °F 59% 30.30 in 10.0 mi North 3.5 mph - N/A   Clear
7:53 PM 52.0 °F - 39.9 °F 63% 30.32 in 10.0 mi North 8.1 mph - N/A   Clear
8:53 PM 51.1 °F - 37.9 °F 61% 30.34 in 10.0 mi North 8.1 mph - N/A   Clear
9:53 PM 48.0 °F - 37.9 °F 68% 30.36 in 10.0 mi North 4.6 mph - N/A   Clear
10:53 PM 46.0 °F 42.5 °F 37.9 °F 73% 30.37 in 10.0 mi NNW 6.9 mph - N/A   Scattered Clouds
11:53 PM 45.0 °F 41.8 °F 37.9 °F 76% 30.37 in 10.0 mi NNW 5.8 mph - N/A   Scattered Clouds